1498064400.92,20792,23.5,74106.5,5.83,-35.95,-36.13,0,*70
1498064402.14,20793,23.5,74106.5,5.85,-36.07,-36.07,0,*7A
1498064403.4,20794,23.5,74110.3,5.85,-36.13,-36.25,0,*78
1498064404.67,20795,23.5,74108.0,5.85,-36.25,-36.13,0,*79
1498064405.93,20796,23.5,74110.3,5.83,-36.25,-36.25,0,*79
1498064407.16,20797,23.5,74104.5,5.85,-35.77,-35.89,0,*7F
1498064408.37,20798,23.5,74104.8,5.83,-35.77,-35.77,0,*77
1498064409.58,20799,23.5,74100.5,5.83,-35.77,-35.77,0,*76
1498064410.82,20800,23.5,74094.8,5.83,-35.35,-35.53,0,*79
1498064412.04,20801,23.5,74096.0,5.83,-35.29,-35.35,0,*75
1498064413.29,20802,23.5,74104.3,5.85,-34.95,-35.01,0,*71
1498064414.52,20803,23.5,74108.8,5.85,-35.01,-35.13,0,*7F
1498064415.74,20804,23.5,74106.3,5.85,-35.17,-35.47,0,*7E
1498064416.95,20805,23.5,74106.8,5.85,-35.89,-36.07,0,*7F
1498064418.19,20806,23.5,74104.5,5.85,-36.43,-36.61,0,*79
1498064419.45,20807,23.5,74108.0,5.85,-35.89,-35.95,0,*75
1498064420.71,20808,23.5,74112.3,5.85,-35.95,-36.13,0,*7A
1498064421.96,20809,23.5,74096.8,5.85,-36.25,-36.31,0,*73
1498064423.2,20810,23.5,74100.3,5.85,-36.31,-36.49,0,*71
1498064424.45,20811,23.5,74108.3,5.83,-35.95,-36.13,0,*74
1498064425.7,20812,23.5,74114.0,5.85,-36.07,-36.13,0,*79
1498064426.94,20813,23.5,74108.5,5.85,-36.25,-36.43,0,*7D
1498064428.21,20814,23.5,74112.0,5.85,-36.13,-36.13,0,*7A
1498064429.43,20815,23.5,74106.8,5.85,-35.89,-35.89,0,*7B
1498064430.68,20816,23.5,74108.8,5.85,-35.89,-35.95,0,*75
1498064431.96,20817,23.5,74114.0,5.85,-36.25,-36.25,0,*79
1498064433.23,20818,23.5,74108.8,5.85,-36.25,-36.25,0,*76
1498064434.49,20819,23.5,74100.8,5.85,-36.07,-35.95,0,*7F
1498064435.73,20820,23.5,74102.5,5.85,-35.95,-36.07,0,*75
1498064436.95,20821,23.5,74106.8,5.85,-36.07,-36.07,0,*7C
1498064438.2,20822,23.5,74102.0,5.85,-35.95,-35.89,0,*72
1498064439.46,20823,23.5,74118.5,5.85,-35.53,-35.53,0,*7E
1498064440.72,20824,23.5,74122.8,5.85,-35.53,-35.53,0,*79
1498064441.93,20825,23.5,74114.0,5.85,-35.13,-35.17,0,*7C
1498064443.15,20826,23.5,74110.8,5.85,-35.13,-35.01,0,*78
1498064444.4,20827,23.5,74104.0,5.89,-35.13,-35.07,0,*73
1498064445.63,20828,23.5,74094.5,5.91,-35.07,-34.89,0,*77
1498064446.92,20829,23.5,74094.5,5.89,-35.07,-34.95,0,*72
1498064448.14,20830,23.5,74094.3,5.89,-35.13,-34.89,0,*72
1498064449.4,20831,23.5,74098.3,5.91,-34.83,-34.83,0,*78
1498064450.63,20832,23.5,74102.8,5.89,-34.77,-34.89,0,*73
1498064451.86,20833,23.5,74102.0,5.89,-34.71,-34.89,0,*74
1498064453.09,20834,23.5,74098.5,5.91,-35.01,-35.07,0,*7B
1498064454.35,20835,23.5,74100.3,5.91,-35.07,-35.35,0,*7D
1498064455.61,20836,23.5,74092.0,5.91,-35.23,-35.35,0,*78
1498064456.84,20837,23.5,74086.0,5.91,-35.59,-35.65,0,*71
1498064458.04,20838,23.5,74090.0,5.95,-35.59,-35.71,0,*7F
1498064459.31,20839,23.5,74092.5,5.93,-35.83,-35.77,0,*79
1498064460.53,20840,23.5,74088.5,5.95,-35.77,-35.89,0,*7B
1498064461.81,20841,23.5,74090.3,5.93,-35.65,-35.83,0,*75
1498064463.02,20842,23.5,74092.0,5.95,-35.71,-35.77,0,*7E
1498064464.24,20843,23.5,74084.5,5.95,-35.89,-35.77,0,*78
1498064465.48,20844,23.5,74084.8,5.93,-35.89,-36.01,0,*7B
1498064466.77,20845,23.5,74086.0,5.93,-35.95,-35.95,0,*79
1498064468.07,20846,23.5,74094.8,5.93,-35.95,-35.83,0,*7D
1498064469.33,20847,23.5,74098.0,5.93,-35.95,-36.01,0,*75
1498064470.62,20848,23.5,74088.0,5.93,-35.83,-35.83,0,*74
1498064471.83,20849,23.5,74094.3,5.95,-35.77,-35.71,0,*75
1498064473.09,20850,23.5,74100.5,5.93,-35.65,-35.71,0,*78
1498064474.35,20851,23.5,74100.0,5.93,-35.83,-35.77,0,*77
1498064475.6,20852,23.5,74106.0,5.93,-35.77,-35.77,0,*7F
1498064476.83,20853,23.5,74098.8,5.95,-35.71,-35.53,0,*78
1498064478.07,20854,23.5,74096.0,5.93,-35.77,-35.59,0,*75
1498064479.3,20855,23.5,74104.5,5.95,-35.47,-35.35,0,*7B
1498064480.53,20856,23.5,74106.3,5.95,-35.35,-35.29,0,*70
1498064481.76,20857,23.5,74110.8,5.95,-35.35,-35.29,0,*71
1498064482.99,20858,23.5,74108.8,5.95,-35.53,-35.47,0,*76
1498064484.24,20859,23.5,74108.0,5.95,-35.53,-35.35,0,*72
1498064485.47,20860,23.5,74106.8,5.95,-35.35,-35.13,0,*7C
1498064486.71,20861,23.5,74104.5,5.95,-35.29,-34.95,0,*7F
1498064487.96,20862,23.5,74100.5,5.97,-35.29,-34.83,0,*79
1498064489.18,20863,23.5,74100.5,5.95,-35.17,-34.83,0,*77
1498064490.41,20864,23.5,74102.0,5.95,-35.13,-34.83,0,*74
1498064491.62,20865,23.5,74098.5,5.95,-35.13,-34.77,0,*7E
1498064492.88,20866,23.5,74098.0,5.97,-34.95,-34.77,0,*70
1498064494.11,20867,23.5,74100.8,5.97,-35.01,-34.77,0,*7D
1498064495.4,20868,23.5,74100.5,6.01,-34.83,-34.65,0,*76
1498064496.67,20869,23.5,74096.3,5.97,-34.77,-34.65,0,*70
1498064497.92,20870,23.5,74096.8,5.97,-35.01,-34.83,0,*70
1498064499.2,20871,23.5,74092.5,5.97,-34.83,-34.83,0,*7A
1498064500.49,20872,23.5,74096.0,5.97,-34.65,-34.65,0,*79
1498064501.75,20873,23.5,74094.0,5.99,-34.53,-34.53,0,*76
1498064502.95,20874,23.5,74094.3,5.99,-34.25,-34.25,0,*71
1498064504.18,20875,23.5,74102.0,5.99,-34.41,-34.53,0,*73
1498064505.4,20876,23.5,74092.0,5.99,-34.71,-34.89,0,*74
1498064506.61,20877,23.5,74096.8,5.99,-34.71,-34.89,0,*75
1498064507.84,20878,23.5,74102.3,5.99,-34.89,-34.95,0,*70
1498064509.09,20879,23.5,74102.5,6.01,-34.89,-34.83,0,*74
1498064510.32,20880,23.5,74100.0,6.01,-34.89,-34.71,0,*7F
1498064511.56,20881,23.5,74098.0,5.99,-34.95,-34.77,0,*77
1498064512.76,20882,23.5,74096.3,5.99,-34.89,-34.77,0,*79
1498064514.03,20883,23.5,74088.5,6.01,-34.65,-34.47,0,*7B
1498064515.3,20884,23.5,74096.3,6.01,-34.31,-34.35,0,*78
1498064516.58,20885,23.5,74094.3,6.01,-34.31,-34.19,0,*77
1498064517.85,20886,23.5,74094.3,6.03,-34.53,-34.65,0,*79
1498064519.1,20887,23.5,74102.5,6.01,-34.35,-34.47,0,*7A
1498064520.36,20888,23.5,74102.0,6.03,-34.65,-34.83,0,*7A
1498064521.58,20889,23.5,74104.3,6.03,-34.71,-34.89,0,*74
1498064522.86,20890,23.5,74104.8,6.01,-35.07,-35.35,0,*78
1498064524.09,20891,23.5,74106.3,6.03,-35.23,-35.59,0,*77
1498064525.3,20892,23.5,74100.5,6.03,-35.59,-35.77,0,*75
1498064526.55,20893,23.5,74110.8,6.03,-35.35,-35.41,0,*7B
1498064527.76,20894,23.5,74112.8,6.03,-35.47,-35.47,0,*7F
1498064528.97,20895,23.5,74110.5,6.03,-35.59,-35.47,0,*71
1498064530.25,20896,23.5,74110.8,6.01,-35.83,-35.65,0,*77
1498064531.5,20897,23.5,74104.3,6.03,-35.65,-35.65,0,*7C
1498064532.75,20898,23.5,74100.8,6.01,-35.47,-35.65,0,*71
1498064534.03,20899,23.5,74102.0,6.01,-35.23,-35.35,0,*77
1498064535.26,20900,23.5,74100.3,6.01,-35.01,-35.17,0,*76
1498064536.52,20901,23.5,74110.5,6.01,-35.01,-35.07,0,*76
1498064537.75,20902,23.5,74116.3,6.03,-35.17,-35.07,0,*70
1498064539.01,20903,23.5,74096.0,6.03,-35.95,-35.83,0,*77
1498064540.29,20904,23.5,74088.5,6.01,-35.83,-35.65,0,*7D
1498064541.55,20905,23.5,74106.0,6.01,-35.01,-35.07,0,*72
1498064542.79,20906,23.5,74098.5,6.01,-35.01,-34.89,0,*76
1498064544.02,20907,23.5,74098.3,6.01,-35.01,-34.89,0,*77
1498064545.28,20908,23.5,74106.8,6.01,-34.83,-34.71,0,*74
1498064546.52,20909,23.5,74110.8,6.03,-35.07,-35.01,0,*7C
1498064547.75,20910,23.5,74106.8,6.01,-34.89,-34.71,0,*77
1498064548.97,20911,23.5,74098.8,6.01,-34.89,-34.71,0,*76
1498064550.23,20912,23.5,74088.5,6.03,-34.53,-34.35,0,*70
1498064551.47,20913,23.5,74088.5,6.03,-34.71,-34.53,0,*71
1498064552.74,20914,23.5,74090.3,6.03,-34.65,-34.65,0,*76
1498064554.0,20915,23.5,74098.5,6.03,-34.53,-34.53,0,*77
1498064555.27,20916,23.5,74104.0,6.03,-34.53,-34.65,0,*71
1498064556.51,20917,23.5,74106.3,6.03,-34.71,-34.65,0,*70
1498064557.74,20918,23.5,74110.3,6.03,-34.89,-34.83,0,*70
1498064558.95,20919,23.5,74100.5,6.03,-34.89,-34.71,0,*7C
1498064560.21,20920,23.5,74100.0,6.03,-34.65,-34.53,0,*74
1498064561.44,20921,23.5,74102.5,6.03,-34.47,-34.35,0,*75
1498064562.68,20922,23.5,74106.8,6.03,-34.35,-34.13,0,*77
1498064563.91,20923,23.5,74104.3,6.03,-34.47,-34.19,0,*79
1498064565.15,20924,23.5,74106.3,6.03,-34.35,-34.47,0,*70
1498064566.39,20925,23.5,74106.5,6.05,-34.31,-34.41,0,*75
1498064567.65,20926,23.5,74106.5,6.07,-34.35,-34.35,0,*73
1498064568.89,20927,23.5,74102.0,6.05,-34.59,-34.59,0,*70
1498064570.09,20928,23.5,74104.8,6.07,-34.25,-34.41,0,*7F
1498064571.3,20929,23.5,74122.3,6.07,-34.77,-34.89,0,*7D
1498064572.55,20930,23.5,74114.8,6.07,-35.23,-35.23,0,*74
1498064573.76,20931,23.5,74098.5,6.07,-35.13,-35.13,0,*75
1498064575.0,20932,23.5,74092.0,6.05,-35.29,-35.29,0,*74
1498064576.29,20933,23.5,74098.8,6.05,-34.95,-34.95,0,*75
1498064577.57,20934,23.5,74092.0,6.05,-34.83,-34.95,0,*75
1498064578.8,20935,23.5,74100.0,6.05,-34.41,-34.59,0,*7A
1498064580.05,20936,23.5,74102.8,6.05,-34.25,-34.31,0,*75
1498064581.29,20937,23.5,74100.5,6.05,-34.47,-34.59,0,*7E
1498064582.54,20938,23.5,74102.8,6.05,-34.83,-35.17,0,*72
1498064583.8,20939,23.5,74100.5,6.05,-35.29,-35.53,0,*72
1498064585.04,20940,23.5,74104.0,6.07,-35.29,-35.53,0,*7E
1498064586.27,20941,23.5,74102.5,6.05,-35.71,-35.77,0,*76
1498064587.52,20942,23.5,74110.5,6.05,-35.77,-35.89,0,*72
1498064588.77,20943,23.5,74104.8,6.05,-35.95,-36.07,0,*7A
1498064590.02,20944,23.5,74102.0,6.05,-35.77,-35.89,0,*74
1498064591.25,20945,23.5,74098.0,6.03,-35.47,-35.65,0,*72
1498064592.48,20946,23.5,74100.0,6.01,-35.59,-35.77,0,*7F
1498064593.71,20947,23.5,74104.3,6.03,-35.59,-35.65,0,*7F
1498064594.97,20948,23.5,74102.3,6.03,-35.83,-35.83,0,*7F
1498064596.24,20949,23.5,74100.5,6.01,-36.13,-36.13,0,*7C
1498064597.5,20950,23.5,74108.8,6.01,-36.01,-36.13,0,*77
1498064598.75,20951,23.5,74104.8,6.01,-36.19,-36.37,0,*79
1498064600.0,20952,23.5,74106.8,6.01,-36.13,-36.19,0,*7C
1498064601.21,20953,23.5,74106.0,5.99,-35.89,-36.01,0,*76
1498064602.44,20954,23.5,74110.0,5.99,-36.07,-36.37,0,*71
1498064603.65,20955,23.5,74096.3,5.99,-36.07,-36.19,0,*7C
1498064604.94,20956,23.5,74106.0,5.97,-36.25,-36.25,0,*7E
1498064606.22,20957,23.5,74110.0,5.97,-36.25,-36.13,0,*7A
1498064607.51,20958,23.5,74108.5,5.97,-35.95,-35.95,0,*70
1498064608.8,20959,23.5,74110.8,5.97,-36.25,-36.25,0,*71
1498064610.08,20960,23.5,74106.5,5.97,-36.13,-36.25,0,*7E
1498064611.28,20961,23.5,74104.5,5.95,-36.07,-36.07,0,*78
1498064612.56,20962,23.5,74098.5,5.97,-36.13,-36.25,0,*7C
1498064613.81,20963,23.5,74094.5,5.97,-36.13,-36.07,0,*7D
1498064615.06,20964,23.5,74092.8,5.97,-36.13,-36.07,0,*7A
1498064616.32,20965,23.5,74110.8,5.95,-36.13,-36.25,0,*79
1498064617.58,20966,23.5,74108.5,5.95,-36.13,-36.25,0,*7A
1498064618.83,20967,23.5,74104.3,5.93,-36.19,-36.13,0,*72
1498064620.11,20968,23.5,74102.0,5.93,-36.13,-36.13,0,*77
1498064621.38,20969,23.5,74096.3,5.93,-36.01,-35.95,0,*78
1498064622.66,20970,23.5,74104.0,5.93,-36.13,-36.13,0,*7E
1498064623.94,20971,23.5,74104.0,5.93,-36.13,-36.13,0,*7F
1498064625.17,20972,23.5,74102.0,5.93,-36.31,-36.31,0,*7C
1498064626.41,20973,23.5,74108.3,5.91,-36.13,-36.01,0,*7C
1498064627.62,20974,23.5,74108.5,5.91,-36.31,-36.19,0,*72
1498064628.85,20975,23.5,74108.0,5.89,-36.19,-36.01,0,*79
1498064630.07,20976,23.5,74104.0,5.89,-36.19,-36.07,0,*7C
1498064631.33,20977,23.5,74104.3,5.89,-36.07,-35.83,0,*7D
1498064632.59,20978,23.5,74108.5,5.89,-36.25,-36.07,0,*7D
1498064633.84,20979,23.5,74114.8,5.89,-36.73,-36.61,0,*7F
1498064635.1,20980,23.5,74106.0,5.89,-36.25,-36.07,0,*7A
1498064636.38,20981,23.5,74104.8,5.89,-36.37,-36.25,0,*78
1498064637.6,20982,23.5,74104.8,5.83,-36.61,-36.43,0,*72
1498064638.87,20983,23.5,74106.8,5.85,-36.49,-36.49,0,*75
1498064640.11,20984,23.5,74108.0,5.83,-36.13,-36.25,0,*71
1498064641.32,20985,23.5,74112.5,5.83,-35.89,-35.89,0,*75
1498064642.52,20986,23.5,74110.3,5.83,-35.71,-35.71,0,*76
1498064643.74,20987,23.5,74100.3,5.83,-35.71,-35.65,0,*72
1498064644.95,20988,23.5,74104.3,5.79,-35.53,-35.59,0,*77
1498064646.18,20989,23.5,74108.0,5.79,-35.95,-36.01,0,*72
1498064647.44,20990,23.5,74108.5,5.81,-36.13,-36.13,0,*73
1498064648.71,20991,23.5,74106.3,5.81,-35.95,-36.13,0,*7F
1498064649.92,20992,23.5,74096.5,5.79,-35.77,-36.01,0,*74
1498064651.11,20993,23.5,74090.0,5.79,-36.19,-36.19,0,*77
1498064652.34,20994,23.5,74090.3,5.79,-35.95,-36.01,0,*7E
1498064653.54,20995,23.5,74090.8,5.79,-35.77,-35.77,0,*71
1498064654.76,20996,23.5,74094.5,5.79,-36.19,-36.13,0,*78
1498064655.98,20997,23.5,74094.0,5.77,-36.19,-36.01,0,*74
1498064657.2,20998,23.5,74102.5,5.77,-36.19,-36.19,0,*72
1498064658.47,20999,23.5,74106.0,5.77,-36.25,-36.25,0,*73
1498064659.72,21000,23.5,74100.5,5.75,-36.61,-36.61,0,*79
1498064660.96,21001,23.5,74096.0,5.75,-36.61,-36.49,0,*72
1498064662.23,21002,23.5,74096.5,5.73,-36.79,-36.61,0,*74
1498064663.47,21003,23.5,74094.8,5.73,-36.25,-36.43,0,*7C
1498064664.68,21004,23.5,74096.3,5.71,-36.85,-36.55,0,*74
1498064665.87,21005,23.5,74102.5,5.71,-36.01,-36.01,0,*78
1498064667.07,21006,23.5,74102.5,5.71,-35.71,-35.77,0,*7D
1498064668.26,21007,23.5,74100.3,5.71,-35.59,-35.59,0,*7A
1498064669.46,21008,23.5,74106.3,5.71,-36.01,-35.89,0,*76
1498064670.7,21009,23.5,74108.8,5.73,-35.47,-35.35,0,*73
1498064671.92,21010,23.5,74108.5,5.69,-35.71,-35.59,0,*7F
1498064673.15,21011,23.5,74108.0,5.71,-35.53,-35.41,0,*7E
1498064674.37,21012,23.5,74110.3,5.71,-35.59,-35.41,0,*77
1498064675.58,21013,23.5,74110.3,5.71,-35.59,-35.41,0,*76
1498064676.8,21014,23.5,74106.3,5.71,-35.65,-35.47,0,*78
1498064678.03,21015,23.5,74104.5,5.71,-35.41,-35.35,0,*7A
1498064679.27,21016,23.5,74104.5,5.71,-35.23,-35.23,0,*7A
1498064680.48,21017,23.5,74108.0,5.71,-35.23,-35.17,0,*7C
1498064681.69,21018,23.5,74098.5,5.71,-35.35,-35.17,0,*74
1498064682.95,21019,23.5,74100.5,5.69,-35.35,-35.23,0,*7B
1498064684.19,21020,23.5,74098.8,5.71,-35.23,-35.23,0,*7F
1498064685.39,21021,23.5,74102.0,5.71,-34.89,-35.01,0,*7F
1498064686.61,21022,23.5,74100.5,5.71,-34.65,-34.59,0,*72
1498064687.81,21023,23.5,74096.0,5.71,-34.59,-34.47,0,*73
1498064689.01,21024,23.5,74096.0,5.71,-34.59,-34.47,0,*74
1498064690.23,21025,23.5,74090.5,5.71,-34.65,-34.71,0,*7F
1498064691.46,21026,23.5,74084.5,5.71,-34.65,-34.59,0,*76
1498064692.67,21027,23.5,74088.5,5.73,-34.25,-34.07,0,*7A
1498064693.88,21028,23.5,74086.5,5.71,-34.31,-34.25,0,*72
1498064695.15,21029,23.5,74088.0,5.73,-34.53,-34.35,0,*74
1498064696.37,21030,23.5,74088.0,5.71,-34.07,-33.89,0,*7F
1498064697.59,21031,23.5,74086.5,5.71,-34.19,-34.07,0,*70
1498064698.83,21032,23.5,74088.8,5.73,-34.01,-33.83,0,*73
1498064700.05,21033,23.5,74102.0,5.75,-34.01,-33.83,0,*74
1498064701.25,21034,23.56,74112.8,5.75,-33.83,-33.67,0,*74
1498064702.49,21035,23.5,74114.3,5.75,-34.19,-34.19,0,*7F
1498064703.69,21036,23.5,74122.3,5.75,-34.07,-34.07,0,*7C
1498064704.89,21037,23.5,74120.0,5.75,-34.07,-34.07,0,*7D
1498064706.1,21038,23.5,74124.3,5.77,-33.67,-33.83,0,*7A
1498064707.35,21039,23.5,74116.5,5.77,-34.35,-34.59,0,*7B
1498064708.55,21040,23.5,74122.5,5.75,-35.01,-35.29,0,*77
1498064709.78,21041,23.5,74118.0,5.77,-34.77,-35.13,0,*7D
1498064711.02,21042,23.5,74112.5,5.77,-34.53,-34.89,0,*7A
1498064712.27,21043,23.5,74108.0,5.77,-34.35,-34.59,0,*76
1498064713.52,21044,23.5,74104.8,5.77,-34.53,-34.77,0,*7D
1498064714.79,21045,23.5,74102.5,5.77,-34.31,-34.53,0,*7E
1498064716.06,21046,23.5,74104.8,5.77,-34.31,-34.53,0,*7D
1498064717.3,21047,23.5,74106.3,5.77,-34.31,-34.59,0,*76
1498064718.56,21048,23.5,74108.3,5.75,-34.65,-34.95,0,*7A
1498064719.75,21049,23.5,74102.8,5.79,-35.01,-35.17,0,*7F
1498064720.98,21050,23.5,74096.0,5.79,-35.07,-35.17,0,*71
1498064722.2,21051,23.5,74096.0,5.79,-34.83,-34.89,0,*7B
1498064723.42,21052,23.5,74100.8,5.79,-34.53,-34.71,0,*72
1498064724.63,21053,23.5,74108.8,5.79,-34.71,-35.01,0,*75
1498064725.87,21054,23.5,74106.3,5.79,-35.23,-35.41,0,*70
1498064727.07,21055,23.5,74106.0,5.79,-35.71,-35.77,0,*73
1498064728.27,21056,23.5,74102.8,5.79,-35.77,-35.71,0,*70
1498064729.52,21057,23.5,74100.8,5.81,-35.77,-35.83,0,*7B
1498064730.75,21058,23.5,74096.8,5.77,-35.89,-35.89,0,*76
1498064732.01,21059,23.5,74096.0,5.79,-35.95,-35.95,0,*79
1498064733.25,21060,23.5,74100.5,5.77,-36.19,-36.25,0,*72
1498064734.48,21061,23.5,74104.0,5.75,-36.25,-36.31,0,*7B
1498064735.71,21062,23.5,74104.3,5.77,-36.19,-36.37,0,*73
1498064736.95,21063,23.5,74102.5,5.77,-36.19,-36.37,0,*72
1498064738.15,21064,23.5,74106.3,5.75,-36.31,-36.31,0,*7B
1498064739.35,21065,23.5,74104.0,5.75,-36.31,-36.43,0,*7F
1498064740.54,21066,23.5,74104.5,5.75,-36.43,-36.43,0,*79
1498064741.76,21067,23.5,74098.3,5.73,-36.31,-36.43,0,*7B
1498064743.01,21068,23.5,74096.5,5.71,-36.37,-36.49,0,*7A
1498064744.24,21069,23.5,74102.8,5.71,-36.37,-36.37,0,*72
1498064745.46,21070,23.5,74096.3,5.71,-36.13,-36.31,0,*7A
1498064746.71,21071,23.5,74088.5,5.73,-35.89,-35.95,0,*74
1498064747.9,21072,23.5,74100.0,5.71,-36.01,-36.19,0,*71
1498064749.12,21073,23.5,74102.3,5.71,-36.01,-36.13,0,*7A
1498064750.31,21074,23.5,74096.8,5.71,-35.59,-35.77,0,*72
1498064751.54,21075,23.5,74088.5,5.69,-35.89,-35.89,0,*76
1498064752.78,21076,23.5,74096.0,5.69,-36.13,-36.31,0,*75
1498064754.02,21077,23.5,74092.5,5.69,-35.89,-36.13,0,*74
1498064755.29,21078,23.5,74098.0,5.69,-35.95,-36.13,0,*76
1498064756.51,21079,23.5,74094.8,5.67,-36.19,-36.37,0,*78
1498064757.72,21080,23.5,74096.5,5.67,-36.19,-36.37,0,*7E
1498064758.97,21081,23.5,74098.8,5.69,-35.95,-36.01,0,*73
1498064760.23,21082,23.5,74098.5,5.67,-35.95,-35.95,0,*70
1498064761.45,21083,23.5,74100.3,5.67,-35.95,-36.19,0,*76
1498064762.71,21084,23.5,74102.0,5.67,-35.95,-35.95,0,*76
1498064763.96,21085,23.5,74100.5,5.67,-35.95,-35.83,0,*70
1498064765.17,21086,23.5,74102.3,5.67,-35.59,-35.65,0,*7B
1498064766.43,21087,23.5,74102.3,5.69,-35.53,-35.53,0,*7B
1498064767.69,21088,23.5,74094.5,5.69,-35.41,-35.53,0,*77
1498064768.94,21089,23.5,74098.5,5.67,-35.23,-35.35,0,*7C
1498064770.13,21090,23.5,74100.0,5.67,-35.47,-35.59,0,*7C
1498064771.33,21091,23.5,74106.5,5.67,-35.59,-35.77,0,*7E
1498064772.54,21092,23.5,74110.3,5.67,-35.59,-35.65,0,*7E
1498064773.76,21093,23.5,74096.8,5.69,-35.71,-35.71,0,*7E
1498064774.95,21094,23.5,74094.3,5.67,-35.47,-35.47,0,*77
1498064776.2,21095,23.5,74096.5,5.67,-35.41,-35.41,0,*76
1498064777.41,21096,23.5,74090.5,5.67,-35.41,-35.59,0,*7C
1498064778.63,21097,23.5,74094.3,5.67,-35.29,-35.41,0,*7A
1498064779.85,21098,23.5,74094.3,5.67,-35.41,-35.47,0,*7D
1498064781.05,21099,23.5,74096.3,5.67,-35.29,-35.29,0,*7A
1498064782.31,21100,23.5,74102.3,5.69,-35.35,-35.23,0,*72
1498064783.57,21101,23.5,74096.3,5.69,-35.35,-35.41,0,*77
1498064784.81,21102,23.5,74098.8,5.69,-35.17,-35.07,0,*76
1498064786.03,21103,23.5,74102.0,5.69,-35.01,-34.89,0,*77
1498064787.28,21104,23.5,74100.5,5.69,-35.01,-35.07,0,*77
1498064788.51,21105,23.5,74098.8,5.69,-35.53,-35.59,0,*7A
1498064789.78,21106,23.5,74102.0,5.69,-35.35,-35.35,0,*73
1498064791.02,21107,23.5,74104.3,5.69,-35.07,-35.17,0,*73
1498064792.27,21108,23.5,74098.8,5.69,-34.65,-34.71,0,*78
1498064793.49,21109,23.5,74094.8,5.69,-34.89,-35.01,0,*7D
1498064794.74,21110,23.5,74098.0,5.69,-34.65,-34.89,0,*76
1498064795.98,21111,23.5,74100.3,5.69,-34.83,-34.89,0,*7F
1498064797.2,21112,23.5,74104.0,5.67,-35.29,-35.23,0,*72
1498064798.46,21113,23.5,74104.3,5.69,-35.35,-35.23,0,*70
1498064799.72,21114,23.56,74100.8,5.69,-35.35,-35.23,0,*77
1498064800.98,21115,23.5,74090.3,5.69,-35.41,-35.23,0,*75
1498064802.22,21116,23.5,74082.8,5.69,-35.17,-35.07,0,*73
1498064803.47,21117,23.5,74072.3,5.69,-34.71,-34.65,0,*76
1498064804.75,21118,23.5,74072.5,5.69,-34.65,-34.65,0,*7C
1498064805.97,21119,23.5,74074.5,5.69,-34.71,-34.59,0,*77
1498064807.23,21120,23.5,74084.8,5.69,-34.59,-34.65,0,*78
1498064808.43,21121,23.5,74090.5,5.71,-34.47,-34.47,0,*7F
1498064809.63,21122,23.5,74102.3,5.71,-34.47,-34.59,0,*73
1498064810.85,21123,23.5,74100.3,5.71,-34.65,-34.71,0,*78
1498064812.08,21124,23.5,74102.8,5.69,-34.71,-35.01,0,*75
1498064813.33,21125,23.56,74106.8,5.69,-34.71,-35.07,0,*72
1498064814.6,21126,23.5,74118.0,5.69,-35.23,-35.41,0,*75
1498064815.83,21127,23.5,74106.5,5.69,-35.41,-35.71,0,*73
1498064817.06,21128,23.5,74100.3,5.69,-35.71,-36.01,0,*7B
1498064818.29,21129,23.5,74104.0,5.69,-35.53,-35.71,0,*7E
1498064819.55,21130,23.5,74106.0,5.69,-35.53,-35.41,0,*75
1498064820.81,21131,23.5,74098.8,5.69,-35.41,-35.53,0,*74
1498064822.08,21132,23.5,74098.8,5.69,-35.23,-35.23,0,*74
1498064823.31,21133,23.5,74098.0,5.69,-35.53,-35.59,0,*7F
1498064824.57,21134,23.5,74100.8,5.69,-35.41,-35.53,0,*71
1498064825.77,21135,23.5,74096.8,5.67,-35.47,-35.47,0,*7D
1498064827.03,21136,23.5,74094.5,5.69,-35.23,-35.35,0,*77
1498064828.3,21137,23.5,74094.0,5.69,-35.35,-35.35,0,*71
1498064829.56,21138,23.5,74102.3,5.69,-35.35,-35.41,0,*7D
1498064830.82,21139,23.5,74092.8,5.69,-35.41,-35.53,0,*7C
1498064832.05,21140,23.5,74094.8,5.69,-35.59,-35.77,0,*7D
1498064833.3,21141,23.5,74094.0,5.69,-35.89,-35.95,0,*7D
1498064834.52,21142,23.5,74096.3,5.69,-35.89,-35.77,0,*72
1498064835.74,21143,23.5,74102.5,5.67,-35.59,-35.41,0,*75
1498064836.96,21144,23.5,74110.5,5.67,-35.29,-35.41,0,*75
1498064838.16,21145,23.56,74108.3,5.67,-35.47,-35.47,0,*7A
1498064839.36,21146,23.56,74108.3,5.67,-35.29,-35.47,0,*71
1498064840.55,21147,23.5,74098.8,5.67,-35.47,-35.47,0,*78
1498064841.77,21148,23.5,74096.3,5.67,-35.41,-35.47,0,*71
1498064842.97,21149,23.5,74102.0,5.67,-35.47,-35.47,0,*76
1498064844.17,21150,23.5,74090.0,5.67,-35.77,-35.77,0,*7E
1498064845.38,21151,23.5,74080.3,5.63,-35.65,-35.71,0,*7E
1498064846.61,21152,23.5,74088.0,5.63,-35.35,-35.29,0,*75
1498064847.81,21153,23.5,74088.0,5.63,-34.77,-34.77,0,*79
1498064849.01,21154,23.5,74092.8,5.63,-34.59,-34.71,0,*74
1498064850.24,21155,23.5,74094.3,5.63,-34.59,-34.53,0,*75
1498064851.44,21156,23.5,74082.8,5.67,-34.47,-34.47,0,*78
1498064852.7,21157,23.5,74078.8,5.67,-34.65,-34.65,0,*79
1498064853.95,21158,23.5,74096.5,5.67,-34.53,-34.53,0,*76
1498064855.18,21159,23.5,74098.5,5.67,-34.71,-34.95,0,*7D
1498064856.39,21160,23.5,74098.8,5.67,-35.13,-35.23,0,*7E
1498064857.59,21161,23.5,74098.8,5.67,-35.47,-35.59,0,*73
1498064858.81,21162,23.56,74100.8,5.67,-35.23,-35.29,0,*75
1498064860.04,21163,23.5,74090.8,5.67,-35.07,-35.13,0,*7B
1498064861.29,21164,23.5,74092.0,5.67,-34.95,-35.07,0,*73
1498064862.49,21165,23.5,74100.5,5.63,-35.01,-35.13,0,*7F
1498064863.69,21166,23.5,74100.0,5.67,-35.29,-35.29,0,*7B
1498064864.89,21167,23.5,74104.5,5.67,-35.47,-35.29,0,*72
1498064866.08,21168,23.5,74104.8,5.63,-35.29,-35.17,0,*7C
1498064867.28,21169,23.5,74106.8,5.63,-35.29,-35.17,0,*7D
1498064868.51,21170,23.5,74106.3,5.63,-35.53,-35.35,0,*78
1498064869.74,21171,23.5,74104.0,5.61,-35.29,-35.13,0,*72
1498064870.95,21172,23.5,74106.0,5.61,-35.17,-35.13,0,*7C
1498064872.21,21173,23.5,74100.5,5.67,-34.95,-34.95,0,*7F
1498064873.43,21174,23.5,74102.8,5.63,-34.95,-35.13,0,*73
1498064874.66,21175,23.5,74098.8,5.63,-34.83,-34.77,0,*76
1498064875.86,21176,23.56,74104.3,5.63,-34.77,-35.01,0,*7E
1498064877.11,21177,23.5,74104.0,5.61,-34.71,-34.83,0,*70
1498064878.33,21178,23.56,74106.0,5.61,-34.77,-35.01,0,*72
1498064879.56,21179,23.5,74106.8,5.61,-35.29,-35.29,0,*73
1498064880.77,21180,23.5,74108.5,5.61,-35.13,-35.17,0,*71
1498064882.02,21181,23.56,74106.5,5.61,-34.71,-34.83,0,*79
1498064883.29,21182,23.5,74106.5,5.61,-34.83,-34.83,0,*77
1498064884.54,21183,23.5,74104.3,5.61,-34.71,-34.83,0,*7B
1498064885.78,21184,23.56,74102.8,5.61,-34.77,-34.83,0,*7A
1498064887.01,21185,23.5,74098.8,5.61,-34.71,-34.77,0,*76
1498064888.22,21186,23.5,74098.3,5.61,-34.25,-34.25,0,*73
1498064889.45,21187,23.56,74098.0,5.61,-34.19,-34.25,0,*7D
1498064890.68,21188,23.5,74100.5,5.61,-34.59,-34.71,0,*77
1498064891.93,21189,23.5,74102.3,5.61,-34.53,-34.71,0,*7C
1498064893.14,21190,23.5,74098.8,5.61,-34.41,-34.59,0,*7D
1498064894.38,21191,23.5,74098.0,5.61,-34.19,-34.25,0,*7A
1498064895.59,21192,23.5,74098.8,5.63,-34.19,-34.25,0,*7B
1498064896.81,21193,23.5,74102.0,5.61,-34.07,-34.25,0,*77
1498064898.05,21194,23.56,74106.5,5.63,-34.19,-34.35,0,*7C
1498064899.26,21195,23.5,74104.8,5.63,-34.35,-34.25,0,*72
1498064900.5,21196,23.5,74106.8,5.61,-34.35,-34.25,0,*73
1498064901.73,21197,23.56,74108.8,5.67,-34.77,-34.65,0,*76
1498064902.98,21198,23.56,74110.0,5.67,-34.65,-34.53,0,*7F
1498064904.18,21199,23.5,74106.8,5.63,-34.77,-34.77,0,*7F
1498064905.38,21200,23.5,74106.3,5.63,-34.77,-34.77,0,*7C
1498064906.59,21201,23.5,74106.8,5.63,-34.71,-34.59,0,*77
1498064907.81,21202,23.56,74114.5,5.63,-34.83,-34.77,0,*75
1498064909.04,21203,23.5,74112.5,5.67,-34.65,-34.71,0,*7E
1498064910.24,21204,23.5,74110.0,5.63,-34.77,-34.77,0,*78
1498064911.44,21205,23.5,74108.0,5.63,-35.01,-35.29,0,*73